Location: Strada George Coșbuc
(47.6577°N, 23.5639°E)
Time: 01:36:02
(UTC+03:00)

ISS - Pass Details

Date: 09 October 2017
Orbit: 400 x 408 km, 51.6° (Epoch: 24 October)

Event Time Altitude Azimuth Distance (km) Brightness Sun altitude
Rises 21:23:39 0° 292° (WNW) 2,330 1.4 -26.5°
Reaches altitude 10° 21:25:48 10° 285° (WNW) 1,468 0.0 -26.8°
Enters shadow 21:27:09 21° 274° (W) 967 -1.3 -27.0°
